Regional Weather Roundup
Issued by NWS

Home | Current Version | Previous Version | Text Only | Print | Product List | Glossary Off
Versions: 1 2 3 4 5 6 7 8 9 10 11 12 13 14 15 16 17 18 19 20 21 22 23 24 25 26 27 28 29 30 31 32 33 34 35 36 37 38 39 40 41 42 43 44 45 46 47 48 49 50

000
ASUS43 KMKX 111459
RWRWI

WISCONSIN REGIONAL WEATHER ROUNDUP
NATIONAL WEATHER SERVICE MILWAUKEE/SULLIVAN WI
900 AM CST THU FEB 11 2016

NOTE: "FAIR" INDICATES FEW OR NO CLOUDS BELOW 12,000 FEET WITH NO
SIGNIFICANT WEATHER AND/OR OBSTRUCTIONS TO VISIBILITY.

WIZ001-002-006>008-014>016-023>028-111600-
NORTHWEST WISCONSIN

CITY           SKY/WX    TMP DP  RH WIND       PRES   REMARKS
SUPERIOR ARPT  CLOUDY    -8 -13  77 SW5       30.32S WCI -19
ASHLAND        CLOUDY    -1  -4  87 SW9       30.27F WCI -16
HAYWARD        CLOUDY   -14 -18  82 CALM      30.26S
SIREN          CLOUDY    -9 -14  76 CALM      30.30F
CUMBERLAND     MOSUNNY  -15 -22  70 S5        30.27R WCI -27
RICE LAKE      MOSUNNY  -10 -15  79 CALM      30.30S
CHETEK         MOSUNNY   -9 -13  81 CALM      30.30S
LADYSMITH      CLOUDY   -11 -16  77 CALM      30.27S
EAU CLAIRE     NOT AVBL
MENOMONIE      CLOUDY     2  -3  77 CALM      30.32S
NEW RICHMOND   CLOUDY    -8 -12  79 CALM      30.30F
OSCEOLA        CLOUDY    -4  -9  79 CALM      30.35S
$$

WIZ003>005-009-010-017-018-111600-
NORTH CENTRAL WISCONSIN

CITY           SKY/WX    TMP DP  RH WIND       PRES   REMARKS
MANITOWISH WTR CLOUDY     2  -2  85 W5        30.17S WCI  -8
ARBOR VITAE    MOSUNNY    3  -2  81 NW5       30.17R WCI  -7
WOODRUFF       MOSUNNY    3  -2  81 NW5       30.17R WCI  -7
RHINELANDER    SUNNY      1  -5  75 W7        30.18R WCI -12
EAGLE RIVER    PTSUNNY    2  -3  79 W6        30.15S WCI  -9
LAND O LAKES   CLOUDY     6   2  83 W7        30.15S WCI  -6
PHILLIPS       CLOUDY    -7 -11  83 CALM      30.21S FOG
TOMAHAWK       SUNNY     -2  -6  83 W3        30.20S
MEDFORD        MOSUNNY   -7 -11  83 CALM      30.21S
MERRILL        SUNNY     -4  -9  78 CALM      30.23R
$$

WIZ029-030-035-036-043>047-111600-
CENTRAL WISCONSIN

CITY           SKY/WX    TMP DP  RH WIND       PRES   REMARKS
WAUSAU         MOSUNNY    1  -6  72 NW8       30.23R WCI -13
MOSINEE        SUNNY      0  -2  92 CALM      30.24S
MARSHFIELD     MOSUNNY   -3  -9  75 NW6       30.24R WCI -15
STEVENS POINT  SUNNY     -2  -8  77 CALM      30.27R
WAUPACA        SUNNY      7  -3  62 W5        30.29R WCI  -1
WAUTOMA        NOT AVBL
WISC RAPIDS    CLOUDY    -1  -5  82 CALM      30.29S
CAMP DOUGLAS   NOT AVBL
$$

WIZ011>013-019>022-031-037>040-048>050-111600-
NORTHEAST WISCONSIN

CITY           SKY/WX    TMP DP  RH WIND       PRES   REMARKS
ANTIGO         SUNNY     -1  -5  82 NW9       30.18R WCI -16
SHAWANO        SUNNY      6  -2  67 W8        30.27S WCI  -6
OCONTO         SUNNY      4  -3  71 W5        30.26R WCI  -5
STURGEON BAY   SUNNY      7  -2  66 W5        30.25S WCI  -2
GREEN BAY      MOSUNNY    3  -4  72 W7        30.27R WCI  -9
MANITOWOC      NOT AVBL
APPLETON       SUNNY      1  -8  66 W9        30.24R WCI -14
CLINTONVILLE   MOSUNNY    1  -6  71 W9        30.27R WCI -14
OSHKOSH        SUNNY      2  -6  69 W7        30.28R WCI -11
$$

WIZ032>034-041-042-053>061-111600-
SOUTHWEST WISCONSIN

CITY           SKY/WX    TMP DP  RH WIND       PRES   REMARKS
LA CROSSE      CLOUDY     1  -4  79 CALM      30.35S
SPARTA         MOSUNNY  -12 -17  76 CALM      30.33S
VIROQUA        CLOUDY     1  -4  79 W6        30.27S WCI -10
BOSCOBEL       CLOUDY     2  -3  80 CALM      30.36S
PRAIRIE DU CHI CLOUDY     2  -5  73 CALM      30.35F
PLATTEVILLE    SUNNY      3  -3  75 N5        30.30F WCI  -6
$$

WIZ056-057-062-063-064-067-068-111600-
SOUTH CENTRAL WISCONSIN

CITY           SKY/WX    TMP DP  RH WIND       PRES   REMARKS
REEDSBURG      CLOUDY    -3  -8  82 CALM      30.31R
BARABOO/DELLS  CLOUDY    -2  -8  77 CALM      30.30R
LONE ROCK      NOT AVBL
MINERAL POINT  CLOUDY     5  -2  72 CALM      30.29S
MADISON        SUNNY      6  -3  66 NW5       30.31R WCI  -3
MIDDLETON      SUNNY      8  -1  67 W3        30.31S
WATERTOWN      SUNNY      6  -2  70 W8        30.29S WCI  -7
MONROE         SUNNY     10   1  67 N5        30.28S WCI   2
JANESVILLE     SUNNY     10   1  67 NW9       30.31R WCI  -2
$$

WIZ051-052-058>065-066-070>072-111600-
SOUTHEAST WISCONSIN

CITY           SKY/WX    TMP DP  RH WIND       PRES   REMARKS
MILWAUKEE      MOSUNNY    9  -2  61 NW8       30.29R WCI  -3
WAUKESHA       NOT AVBL
MILWAUKEE/TIMM SUNNY      9  -2  61 NW6       30.29R WCI  -1
RACINE         SUNNY      8  -3  61 W9        30.30R WCI  -5
BURLINGTON     SUNNY      8  -2  64 NW9       30.30R WCI  -6
KENOSHA        SUNNY      9  -1  64 NW9       30.29R WCI  -4
FOND DU LAC    SUNNY      5  -3  69 NW7       30.29R WCI  -7
SHEBOYGAN      SUNNY      5  -4  66 NW10      30.27R WCI -10
WEST BEND      SUNNY      5  -4  66 CALM      30.27R
JUNEAU         SUNNY      4  -4  70 NW8       30.29R WCI -10
$$

LSZ147-162-111600-
LAKE SUPERIOR

STATION/POSITION TIME  TEMP    WIND        PRES    WAVE
                       AIR SEA DIR/SP/G            HT/PER
                 (UTC) (F)     (DEG/KT/KT) (MB)    (FT/S)
DEVILS ISLAND    1300    9     290/  8/ 12 1026.5R
PORT WING        1300   -2     200/  8/ 10 1025.7
SAXON HARBOR     1300    5                 1024.7
$$

LMZ867-665-643>646-111600-
LAKE MICHIGAN

STATION/POSITION TIME  TEMP    WIND        PRES    WAVE
                       AIR SEA DIR/SP/G            HT/PER
                 (UTC) (F)     (DEG/KT/KT) (MB)    (FT/S)
CHAMBERS ISLAND  1300    8     300/  9/ 14 1023.4
ALGOMA LAKESHORE 1341          310/  5/ 10   N/A
KEWAUNEE LAKESHO 1400    3     300/  9/ 14 1023.2R
SHEBOYGAN LAKESH 1300    4     290/ 11/ 12 1026.5R
PORT WASHINGTON  1340    5     300/  8/ 13 1026.1R
MILWAUKEE LAKESH 1410    9     320/ 11/ 13   N/A
KENOSHA   LAKESH 1300    7     310/ 12/ 16 1024.7R
$$

TC  - TEMPERATURE IN CELSIUS
VSB - VISIBILITY IN STATUTE MILES
WCI - WIND CHILL INDEX
HX  - HEAT INDEX




USA.gov is the U.S. government's official web portal to all federal, state and local government web resources and services.